Weather History for Benbecula, United Kingdom

Change the Weather History Date:

Thursday, February 7, 2013

  Actual Average Record
Temperature  
Mean Temperature 38 °F -  
Max Temperature 44 °F 43 °F 50 °F (2002)
Min Temperature 33 °F 37 °F 24 °F (2009)
Degree Days  
Heating Degree Days 26    
Moisture  
Dew Point 36 °F    
Average Humidity 89    
Maximum Humidity 93    
Minimum Humidity 70    
Precipitation  
Precipitation 0.00 in - - ()
Sea Level Pressure  
Sea Level Pressure 30.08 in    
Wind  
Wind Speed 7 mph ()    
Max Wind Speed 24 mph    
Max Gust Speed 37 mph    
Visibility 6.1 miles    
Events Rain    
Averages and records for this station are not official NWS values.
T = Trace of Precipitation, MM = Missing Value Source: Averaged Metar Reports

Daily Weather History Graph

Daily Weather History Graph

Search for Another Location

Airport:

Trip Planner

Search our weather history database for the weather conditions in past years. The results will help you decide how hot, cold, wet, or windy it might be!

Date:

Astronomy

Feb. 07, 2013 Rise Set
Actual Time 8:17 AM GMT 5:10 PM GMT
Civil Twilight 7:35 AM GMT 5:52 PM GMT
Nautical Twilight 6:49 AM GMT 6:38 PM GMT
Astronomical Twilight 6:04 AM GMT 7:23 PM GMT
Moon 6:08 AM GMT (2/7) 1:58 PM GMT (2/7)
Length of Visible Light 10h 16m
Length of Day
8h 53m
Waning Crescent, 10% of the Moon is Illuminated
Feb 7
Waning Crescent
Feb 10
New
Feb 17
First Quarter
Feb 25
Full
Mar 4
Last Quarter

Hourly Weather History & Observations

Time (GMT) Temp. Windchill Dew Point Humidity Pressure Visibility Wind Dir Wind Speed Gust Speed Precip Events Conditions
12:20 AM 37.4 °F 32.8 °F 33.8 °F 87% 30.21 in 6.2 mi NNW 5.8 mph - N/A   Unknown
12:50 AM 37.4 °F 32.8 °F 35.6 °F 93% 30.21 in - WNW 5.8 mph - N/A Rain Light Rain
1:20 AM 37.4 °F 30.8 °F 35.6 °F 93% 30.18 in 6.2 mi NNW 9.2 mph - N/A   Scattered Clouds
1:50 AM 37.4 °F 30.3 °F 35.6 °F 93% 30.18 in 6.2 mi NNW 10.4 mph - N/A   Mostly Cloudy
2:20 AM 39.2 °F 37.0 °F 35.6 °F 87% 30.15 in 6.2 mi NNW 3.5 mph - N/A   Unknown
2:50 AM 39.2 °F 34.2 °F 35.6 °F 87% 30.15 in 6.2 mi NNW 6.9 mph - N/A   Unknown
3:20 AM 37.4 °F 32.1 °F 33.8 °F 87% 30.15 in 6.2 mi NNW 6.9 mph - N/A   Partly Cloudy
3:50 AM 37.4 °F 34.9 °F 33.8 °F 87% 30.12 in 6.2 mi NW 3.5 mph - N/A   Scattered Clouds
4:20 AM 37.4 °F - 33.8 °F 87% 30.12 in 6.2 mi Variable 2.3 mph - N/A   Unknown
4:50 AM 33.8 °F 29.6 °F 32.0 °F 93% 30.09 in 6.2 mi East 4.6 mph - N/A   Unknown
5:20 AM 33.8 °F 29.6 °F 32.0 °F 93% 30.09 in 6.2 mi ESE 4.6 mph - N/A   Unknown
5:50 AM 33.8 °F 30.8 °F 32.0 °F 93% 30.09 in 6.2 mi SE 3.5 mph - N/A   Mostly Cloudy
6:20 AM 33.8 °F 30.8 °F 32.0 °F 93% 30.09 in 6.2 mi SSE 3.5 mph - N/A   Overcast
6:50 AM 33.8 °F 30.8 °F 32.0 °F 93% 30.06 in 6.2 mi SSE 3.5 mph - N/A   Overcast
7:20 AM 35.6 °F 31.7 °F 33.8 °F 93% 30.06 in 6.2 mi SSE 4.6 mph - N/A   Mostly Cloudy
7:50 AM 35.6 °F 30.7 °F 33.8 °F 93% 30.06 in 6.2 mi South 5.8 mph - N/A   Mostly Cloudy
8:20 AM 35.6 °F 30.7 °F 33.8 °F 93% 30.04 in 6.2 mi SSE 5.8 mph - N/A   Mostly Cloudy
8:50 AM 35.6 °F 31.7 °F 33.8 °F 93% 30.04 in 6.2 mi SSE 4.6 mph - N/A   Mostly Cloudy
9:20 AM 37.4 °F 33.8 °F 35.6 °F 93% 30.04 in 6.2 mi SSE 4.6 mph - N/A   Mostly Cloudy
9:50 AM 37.4 °F 33.8 °F 35.6 °F 93% 30.04 in 6.2 mi South 4.6 mph - N/A   Mostly Cloudy
10:20 AM 39.2 °F 35.0 °F 35.6 °F 87% 30.04 in 6.2 mi South 5.8 mph - N/A   Mostly Cloudy
10:50 AM 39.2 °F 35.9 °F 35.6 °F 87% 30.04 in 6.2 mi South 4.6 mph - N/A Rain Light Rain Showers
11:20 AM 41.0 °F 39.0 °F 37.4 °F 87% 30.04 in 6.2 mi SSE 3.5 mph - N/A   Mostly Cloudy
11:50 AM 41.0 °F 38.0 °F 37.4 °F 87% 30.04 in 6.2 mi South 4.6 mph - N/A Rain Light Rain Showers
12:20 PM 41.0 °F 37.1 °F 37.4 °F 87% 30.04 in 6.2 mi SW 5.8 mph - N/A Rain Light Rain Showers
12:50 PM 41.0 °F 37.1 °F 37.4 °F 87% 30.04 in 6.2 mi SW 5.8 mph - N/A Rain Light Rain
1:20 PM 39.2 °F 35.0 °F 37.4 °F 93% 30.04 in 6.2 mi SSW 5.8 mph - N/A Rain Light Rain
1:50 PM 39.2 °F 35.0 °F 37.4 °F 93% 30.04 in 6.2 mi South 5.8 mph - N/A Rain Light Rain
2:20 PM 39.2 °F 34.2 °F 37.4 °F 93% 30.04 in 6.2 mi SSW 6.9 mph - N/A Rain Light Rain
2:50 PM 41.0 °F 36.4 °F 39.2 °F 93% 30.04 in 6.2 mi SSW 6.9 mph - N/A Rain Light Rain
3:20 PM 41.0 °F 35.2 °F 39.2 °F 93% 30.01 in 5.0 mi SSW 9.2 mph - N/A Rain Light Rain
3:50 PM 41.0 °F 34.3 °F 39.2 °F 93% 30.01 in 5.0 mi South 11.5 mph - N/A Rain Light Rain
4:20 PM 44.6 °F 37.8 °F 42.8 °F 93% 30.01 in 6.2 mi NW 15.0 mph - N/A   Mostly Cloudy
4:50 PM 44.6 °F 37.4 °F 41.0 °F 87% 30.04 in 6.2 mi NNW 16.1 mph - N/A   Mostly Cloudy
5:20 PM 42.8 °F 36.2 °F 41.0 °F 93% 30.04 in 6.2 mi NNW 12.7 mph - N/A   Unknown
5:50 PM 42.8 °F 38.6 °F 41.0 °F 93% 30.04 in 6.2 mi NNW 6.9 mph - N/A   Scattered Clouds
6:20 PM 44.6 °F 36.9 °F 39.2 °F 81% 30.06 in 6.2 mi NNW 18.4 mph - N/A   Scattered Clouds
6:50 PM 42.8 °F 35.8 °F 39.2 °F 87% 30.06 in 6.2 mi NNW 13.8 mph - N/A   Mostly Cloudy
7:20 PM 42.8 °F 34.3 °F 39.2 °F 87% 30.06 in 6.2 mi NNW 19.6 mph - N/A   Scattered Clouds
7:50 PM 44.6 °F 38.1 °F 41.0 °F 87% 30.06 in 6.2 mi NNW 13.8 mph - N/A   Mostly Cloudy
8:20 PM 42.8 °F 34.8 °F 39.2 °F 87% 30.09 in 6.2 mi NNW 17.3 mph - N/A   Unknown
8:50 PM 42.8 °F 33.3 °F 39.2 °F 87% 30.09 in 6.2 mi NW 24.2 mph - N/A   Unknown
9:20 PM 42.8 °F 33.3 °F 37.4 °F 81% 30.09 in 6.2 mi NNW 24.2 mph - N/A   Unknown
9:50 PM 42.8 °F 33.8 °F 35.6 °F 76% 30.09 in 6.2 mi NNW 21.9 mph - N/A   Unknown
10:20 PM 41.0 °F 31.1 °F 35.6 °F 81% 30.12 in 4.3 mi NW 23.0 mph 36.8 mph N/A Rain Light Rain
10:50 PM 42.8 °F 35.8 °F 37.4 °F 81% 30.12 in 5.6 mi NNW 13.8 mph - N/A   Partly Cloudy
11:20 PM 42.8 °F 34.5 °F 37.4 °F 81% 30.12 in 5.6 mi NNW 18.4 mph - N/A   Scattered Clouds
11:50 PM 42.8 °F 33.3 °F 33.8 °F 70% 30.12 in 6.2 mi NW 24.2 mph - N/A   Scattered Clouds